| time (UTC) | temp F | wind direction | speed MPH | gust MPH | rain 1hr in | rain 24hr in | rain mn in | humidity % | barometer mb |
| 20260901175528 | 89 | 349 | 0.0 | 0.0 | 0.00 | 0.01 | 0.01 | 63 | 1036.7 |
| 20260901174627 | 88 | 90 | 0.0 | 0.0 | 0.00 | 0.01 | 0.01 | 66 | 1036.7 |
| 20260901173627 | 87 | 180 | 0.0 | 0.0 | 0.00 | 0.01 | 0.01 | 68 | 1036.8 |
| 20260901170628 | 82 | 270 | 0.0 | 0.0 | 0.00 | 0.01 | 0.01 | 77 | 1037.2 |
| 20260901165630 | 80 | 250 | 0.0 | 0.0 | 0.00 | 0.01 | 0.01 | 83 | 1037.2 |
| 20260901165530 | 80 | 153 | 0.0 | 0.0 | 0.00 | 0.01 | 0.01 | 84 | 1037.2 |
| 20260901163529 | 81 | 135 | 0.0 | 0.0 | 0.00 | 0.01 | 0.01 | 84 | 1037.9 |
| 20260901163428 | 81 | 135 | 0.0 | 0.0 | 0.00 | 0.01 | 0.01 | 84 | 1038.0 |
| 20260901162429 | 81 | 135 | 0.0 | 0.0 | 0.00 | 0.01 | 0.01 | 83 | 1038.2 |
| 20260901161428 | 81 | 135 | 0.0 | 0.0 | 0.00 | 0.01 | 0.01 | 81 | 1038.1 |
| 20260901160430 | 80 | 135 | 0.0 | 0.0 | 0.00 | 0.01 | 0.01 | 84 | 1037.9 |
| 20260901155429 | 79 | 135 | 0.0 | 0.0 | 0.00 | 0.01 | 0.01 | 85 | 1038.0 |
| 20260901153329 | 79 | 112 | 0.0 | 0.0 | 0.00 | 0.01 | 0.01 | 85 | 1038.2 |
| 20260901152329 | 79 | 112 | 0.0 | 0.0 | 0.00 | 0.02 | 0.01 | 86 | 1038.1 |
| 20260901151330 | 79 | 112 | 0.0 | 0.0 | 0.00 | 0.02 | 0.01 | 87 | 1038.2 |
| 20260901150328 | 79 | 112 | 0.0 | 0.0 | 0.00 | 0.02 | 0.01 | 86 | 1038.1 |
| 20260901150244 | 79 | 112 | 0.0 | 0.0 | 0.00 | 0.02 | 0.01 | 87 | 1038.2 |
| 20260901145328 | 79 | 112 | 0.0 | 0.0 | 0.00 | 0.02 | 0.01 | 89 | 1038.2 |
| 20260901145229 | 79 | 112 | 0.0 | 0.0 | 0.00 | 0.02 | 0.01 | 89 | 1038.1 |
| 20260901144230 | 78 | 112 | 0.0 | 0.0 | 0.00 | 0.02 | 0.01 | 89 | 1038.0 |
| 20260901143231 | 78 | 45 | 0.0 | 0.0 | 0.00 | 0.02 | 0.01 | 91 | 1038.4 |
| 20260901143128 | 78 | 45 | 0.0 | 0.0 | 0.00 | 0.02 | 0.01 | 91 | 1038.3 |
| 20260901142130 | 78 | 45 | 0.0 | 0.0 | 0.00 | 0.02 | 0.01 | 90 | 1038.2 |
| 20260901141229 | 77 | 45 | 0.0 | 0.0 | 0.00 | 0.02 | 0.01 | 89 | 1038.2 |
| 20260901141129 | 77 | 45 | 0.0 | 0.0 | 0.00 | 0.02 | 0.01 | 89 | 1038.1 |
| 20260901140141 | 77 | 45 | 0.0 | 0.0 | 0.00 | 0.02 | 0.01 | 92 | 1038.1 |
| 20260901135230 | 76 | 45 | 0.0 | 0.0 | 0.00 | 0.02 | 0.01 | 93 | 1038.1 |
| 20260901134229 | 75 | 45 | 0.0 | 0.0 | 0.00 | 0.02 | 0.01 | 94 | 1038.3 |
| 20260901132230 | 75 | 52 | 0.0 | 0.0 | 0.00 | 0.02 | 0.01 | 93 | 1038.0 |
| 20260901131129 | 75 | 67 | 0.0 | 0.0 | 0.00 | 0.02 | 0.01 | 94 | 1038.0 |
| 20260901130128 | 75 | 67 | 0.0 | 0.0 | 0.00 | 0.02 | 0.01 | 95 | 1038.2 |
| 20260901125129 | 74 | 67 | 0.0 | 0.0 | 0.00 | 0.02 | 0.01 | 95 | 1038.3 |
| 20260901124129 | 73 | 67 | 0.0 | 0.0 | 0.00 | 0.02 | 0.01 | 96 | 1038.2 |
| 20260901123227 | 73 | 67 | 0.0 | 0.0 | 0.00 | 0.02 | 0.01 | 96 | 1038.2 |
| 20260901122231 | 73 | 67 | 0.0 | 0.0 | 0.00 | 0.02 | 0.01 | 95 | 1038.3 |
| 20260901121329 | 72 | 67 | 0.0 | 0.0 | 0.00 | 0.02 | 0.01 | 95 | 1038.3 |
| 20260901120328 | 72 | 67 | 0.0 | 0.0 | 0.00 | 0.02 | 0.01 | 95 | 1038.2 |
| 20260901120230 | 72 | 67 | 0.0 | 0.0 | 0.00 | 0.02 | 0.01 | 96 | 1038.2 |
| 20260901115230 | 72 | 67 | 0.0 | 0.0 | 0.00 | 0.02 | 0.01 | 96 | 1038.5 |
| 20260901114228 | 72 | 67 | 0.0 | 0.0 | 0.00 | 0.02 | 0.01 | 96 | 1038.4 |
| 20260901113231 | 71 | 67 | 0.0 | 0.0 | 0.00 | 0.02 | 0.01 | 96 | 1038.7 |
| 20260901112228 | 71 | 67 | 0.0 | 0.0 | 0.00 | 0.02 | 0.01 | 96 | 1038.6 |
| 20260901111246 | 71 | 67 | 0.0 | 0.0 | 0.01 | 0.02 | 0.01 | 95 | 1038.4 |
| 20260901105328 | 71 | 67 | 0.0 | 0.0 | 0.01 | 0.02 | 0.01 | 95 | 1038.5 |
| 20260901104329 | 71 | 67 | 0.0 | 0.0 | 0.01 | 0.02 | 0.01 | 95 | 1038.3 |
| 20260901103328 | 71 | 67 | 0.0 | 0.0 | 0.01 | 0.02 | 0.01 | 95 | 1038.5 |
| 20260901102329 | 71 | 67 | 0.0 | 0.0 | 0.01 | 0.02 | 0.01 | 94 | 1038.5 |
| 20260901101329 | 71 | 67 | 0.0 | 0.0 | 0.00 | 0.01 | 0.00 | 95 | 1038.5 |
| 20260901100427 | 71 | 67 | 0.0 | 0.0 | 0.00 | 0.01 | 0.00 | 94 | 1038.4 |
| 20260901095430 | 71 | 67 | 0.0 | 0.0 | 0.00 | 0.01 | 0.00 | 95 | 1038.4 |
| 20260901094527 | 71 | 67 | 0.0 | 0.0 | 0.00 | 0.01 | 0.00 | 95 | 1038.5 |
| 20260901092430 | 71 | 67 | 0.0 | 0.0 | 0.00 | 0.01 | 0.00 | 95 | 1038.3 |
| 20260901091429 | 71 | 67 | 0.0 | 0.0 | 0.00 | 0.01 | 0.00 | 94 | 1038.4 |
| 20260901090528 | 71 | 67 | 0.0 | 0.0 | 0.00 | 0.01 | 0.00 | 95 | 1038.6 |
| 20260901084629 | 71 | 67 | 0.0 | 0.0 | 0.00 | 0.01 | 0.00 | 95 | 1039.0 |
| 20260901083729 | 71 | 67 | 0.0 | 0.0 | 0.00 | 0.01 | 0.00 | 95 | 1038.8 |
| 20260901083627 | 71 | 67 | 0.0 | 0.0 | 0.00 | 0.01 | 0.00 | 95 | 1038.7 |
| 20260901082629 | 71 | 67 | 0.0 | 0.0 | 0.00 | 0.01 | 0.00 | 94 | 1038.8 |
| 20260901081728 | 71 | 67 | 0.0 | 0.0 | 0.00 | 0.01 | 0.00 | 95 | 1038.7 |
| 20260901081628 | 71 | 67 | 0.0 | 0.0 | 0.00 | 0.01 | 0.00 | 95 | 1038.7 |
| 20260901081531 | 71 | 67 | 0.0 | 0.0 | 0.00 | 0.01 | 0.00 | 95 | 1038.7 |
| 20260901080628 | 71 | 67 | 0.0 | 0.0 | 0.00 | 0.01 | 0.00 | 95 | 1038.6 |
| 20260901074630 | 71 | 67 | 0.0 | 0.0 | 0.00 | 0.01 | 0.00 | 95 | 1038.8 |
| 20260901073629 | 71 | 67 | 0.0 | 0.0 | 0.00 | 0.01 | 0.00 | 95 | 1038.7 |
| 20260901073527 | 71 | 67 | 0.0 | 0.0 | 0.00 | 0.01 | 0.00 | 94 | 1038.6 |
| 20260901072529 | 71 | 67 | 0.0 | 0.0 | 0.00 | 0.01 | 0.00 | 95 | 1038.7 |
| 20260901071529 | 71 | 67 | 0.0 | 0.0 | 0.00 | 0.01 | 0.00 | 95 | 1038.8 |
| 20260901071430 | 71 | 67 | 0.0 | 0.0 | 0.00 | 0.01 | 0.00 | 95 | 1038.8 |
| 20260901070445 | 71 | 67 | 0.0 | 0.0 | 0.00 | 0.01 | 0.00 | 95 | 1038.9 |
| 20260901065530 | 71 | 67 | 0.0 | 0.0 | 0.00 | 0.01 | 0.00 | 93 | 1038.9 |
| 20260901065446 | 71 | 67 | 0.0 | 0.0 | 0.00 | 0.01 | 0.00 | 94 | 1039.0 |
| 20260901064431 | 71 | 67 | 0.0 | 0.0 | 0.00 | 0.01 | 0.00 | 93 | 1039.2 |
| 20260901063427 | 71 | 67 | 0.0 | 0.0 | 0.00 | 0.01 | 0.00 | 93 | 1039.2 |
| 20260901062428 | 71 | 67 | 0.0 | 0.0 | 0.00 | 0.01 | 0.00 | 93 | 1039.3 |
| 20260901061428 | 71 | 67 | 0.0 | 0.0 | 0.00 | 0.01 | 0.00 | 94 | 1039.4 |
| 20260901061329 | 71 | 67 | 0.0 | 0.0 | 0.00 | 0.01 | 0.00 | 94 | 1039.4 |
| 20260901054330 | 71 | 67 | 0.0 | 0.0 | 0.00 | 0.01 | 0.00 | 94 | 1039.5 |
| 20260901053230 | 71 | 67 | 0.0 | 0.0 | 0.00 | 0.01 | 0.00 | 94 | 1039.5 |
| 20260901052327 | 71 | 67 | 0.0 | 0.0 | 0.00 | 0.01 | 0.00 | 93 | 1039.5 |
| 20260901051329 | 70 | 67 | 0.0 | 0.0 | 0.00 | 0.01 | 0.00 | 93 | 1039.6 |
| 20260901045446 | 70 | 67 | 0.0 | 0.0 | 0.00 | 0.01 | 0.00 | 92 | 1039.7 |
| 20260901044528 | 70 | 67 | 0.0 | 0.0 | 0.00 | 0.01 | 0.00 | 93 | 1039.8 |
| 20260901043531 | 70 | 67 | 0.0 | 0.0 | 0.00 | 0.01 | 0.00 | 93 | 1040.2 |
| 20260901042628 | 70 | 67 | 0.0 | 0.0 | 0.00 | 0.01 | 0.00 | 93 | 1040.2 |
| 20260901042529 | 70 | 67 | 0.0 | 0.0 | 0.00 | 0.01 | 0.00 | 93 | 1040.2 |
| 20260901041529 | 70 | 67 | 0.0 | 0.0 | 0.00 | 0.02 | 0.00 | 93 | 1040.3 |
| 20260901040628 | 70 | 67 | 0.0 | 0.0 | 0.00 | 0.03 | 0.00 | 93 | 1040.4 |
| 20260901035714 | 69 | 67 | 0.0 | 0.0 | 0.00 | 0.03 | 0.03 | 93 | 1040.3 |
| 20260901034713 | 69 | 67 | 0.0 | 0.0 | 0.00 | 0.03 | 0.03 | 93 | 1040.4 |
| 20260901033714 | 69 | 67 | 0.0 | 0.0 | 0.00 | 0.03 | 0.03 | 93 | 1040.3 |
| 20260901032714 | 69 | 67 | 0.0 | 0.0 | 0.00 | 0.03 | 0.03 | 93 | 1040.4 |
| 20260901032613 | 69 | 67 | 0.0 | 0.0 | 0.00 | 0.03 | 0.03 | 93 | 1040.5 |
| 20260901030614 | 69 | 67 | 0.0 | 0.0 | 0.00 | 0.04 | 0.03 | 92 | 1040.7 |
| 20260901025616 | 69 | 67 | 0.0 | 0.0 | 0.00 | 0.04 | 0.03 | 91 | 1040.5 |
| 20260901024614 | 69 | 67 | 0.0 | 0.0 | 0.00 | 0.04 | 0.03 | 92 | 1040.5 |
| 20260901023612 | 69 | 67 | 0.0 | 0.0 | 0.00 | 0.21 | 0.03 | 91 | 1040.6 |
| 20260901022616 | 69 | 67 | 0.0 | 0.0 | 0.00 | 0.54 | 0.03 | 91 | 1040.7 |
| 20260901021712 | 69 | 67 | 0.0 | 0.0 | 0.00 | 0.57 | 0.03 | 90 | 1040.7 |
| 20260901020715 | 69 | 67 | 0.0 | 0.0 | 0.00 | 0.59 | 0.03 | 90 | 1040.6 |
| 20260901015715 | 69 | 67 | 0.0 | 0.0 | 0.00 | 0.59 | 0.03 | 90 | 1040.6 |
| 20260901013713 | 69 | 67 | 0.0 | 0.0 | 0.00 | 0.59 | 0.03 | 90 | 1040.6 |
| 20260901012716 | 69 | 67 | 0.0 | 0.0 | 0.00 | 0.59 | 0.03 | 88 | 1040.7 |
| 20260901010714 | 70 | 67 | 0.0 | 0.0 | 0.00 | 0.59 | 0.03 | 88 | 1040.5 |
| 20260901004716 | 70 | 67 | 0.0 | 0.0 | 0.00 | 0.59 | 0.03 | 88 | 1040.5 |
| 20260901003716 | 70 | 67 | 0.0 | 0.0 | 0.00 | 0.59 | 0.03 | 88 | 1040.5 |
| 20260901003615 | 70 | 67 | 0.0 | 0.0 | 0.00 | 0.59 | 0.03 | 88 | 1040.5 |
| 20260901002614 | 71 | 67 | 0.0 | 0.0 | 0.00 | 0.59 | 0.03 | 87 | 1040.3 |
| 20260901001714 | 71 | 67 | 0.0 | 0.0 | 0.00 | 0.59 | 0.03 | 86 | 1040.3 |
| 20260901001613 | 71 | 67 | 0.0 | 0.0 | 0.00 | 0.59 | 0.03 | 85 | 1040.3 |
| 20260901000613 | 71 | 67 | 0.0 | 0.0 | 0.00 | 0.59 | 0.03 | 86 | 1040.2 |
| 20260831235615 | 72 | 67 | 0.0 | 0.0 | 0.00 | 0.59 | 0.03 | 86 | 1040.0 |
| 20260831235513 | 72 | 67 | 0.0 | 0.0 | 0.00 | 0.59 | 0.03 | 85 | 1040.0 |
| 20260831234513 | 72 | 67 | 0.0 | 0.0 | 0.00 | 0.59 | 0.03 | 85 | 1040.1 |
| 20260831233514 | 73 | 67 | 0.0 | 0.0 | 0.00 | 0.59 | 0.03 | 86 | 1040.0 |
| 20260831230515 | 73 | 67 | 0.0 | 0.0 | 0.00 | 0.59 | 0.03 | 85 | 1040.3 |
| 20260831224516 | 74 | 67 | 0.0 | 0.0 | 0.00 | 0.59 | 0.03 | 85 | 1040.7 |
| 20260831223614 | 74 | 67 | 0.0 | 0.0 | 0.00 | 0.59 | 0.03 | 85 | 1040.7 |
| 20260831222614 | 74 | 67 | 0.0 | 0.0 | 0.00 | 0.59 | 0.03 | 83 | 1040.7 |
| 20260831221714 | 74 | 67 | 0.0 | 0.0 | 0.00 | 0.59 | 0.03 | 84 | 1040.7 |
| 20260831220616 | 75 | 67 | 0.0 | 0.0 | 0.00 | 0.59 | 0.03 | 84 | 1040.8 |
| 20260831215712 | 75 | 67 | 0.0 | 0.0 | 0.00 | 0.59 | 0.03 | 83 | 1041.0 |
| 20260831214714 | 75 | 67 | 0.0 | 0.0 | 0.00 | 0.59 | 0.03 | 84 | 1040.8 |
| 20260831214613 | 75 | 67 | 0.0 | 0.0 | 0.00 | 0.59 | 0.03 | 84 | 1040.8 |
| 20260831213614 | 75 | 67 | 0.0 | 0.0 | 0.00 | 0.59 | 0.03 | 84 | 1040.9 |
| 20260831212614 | 75 | 67 | 0.0 | 0.0 | 0.00 | 0.59 | 0.03 | 83 | 1040.9 |
| 20260831212515 | 75 | 67 | 0.0 | 0.0 | 0.00 | 0.59 | 0.03 | 83 | 1040.9 |
| 20260831211513 | 75 | 67 | 0.0 | 0.0 | 0.00 | 0.59 | 0.03 | 83 | 1041.1 |
| 20260831210515 | 75 | 67 | 0.0 | 0.0 | 0.00 | 0.59 | 0.03 | 83 | 1041.0 |
| 20260831204513 | 75 | 67 | 0.0 | 0.0 | 0.00 | 0.59 | 0.03 | 82 | 1041.2 |
| 20260831204415 | 75 | 67 | 0.0 | 0.0 | 0.00 | 0.59 | 0.03 | 82 | 1041.2 |
| 20260831203413 | 76 | 67 | 0.0 | 0.0 | 0.00 | 0.59 | 0.03 | 80 | 1041.1 |
| 20260831202413 | 77 | 67 | 0.0 | 0.0 | 0.00 | 0.59 | 0.03 | 78 | 1041.3 |
| 20260831201417 | 77 | 67 | 0.0 | 0.0 | 0.00 | 0.59 | 0.03 | 77 | 1041.4 |
| 20260831200313 | 77 | 67 | 0.0 | 0.0 | 0.00 | 0.59 | 0.03 | 76 | 1041.4 |
| 20260831195313 | 77 | 67 | 0.0 | 0.0 | 0.00 | 0.59 | 0.03 | 77 | 1041.4 |
| 20260831194315 | 77 | 67 | 0.0 | 0.0 | 0.00 | 0.59 | 0.03 | 76 | 1041.6 |
| 20260831193413 | 78 | 67 | 0.0 | 0.0 | 0.00 | 0.59 | 0.03 | 76 | 1041.7 |
| 20260831192414 | 78 | 67 | 0.0 | 0.0 | 0.00 | 0.59 | 0.03 | 75 | 1041.6 |
| 20260831192314 | 78 | 67 | 0.0 | 0.0 | 0.00 | 0.59 | 0.03 | 74 | 1041.6 |
| 20260831191314 | 78 | 67 | 0.0 | 0.0 | 0.00 | 0.59 | 0.03 | 74 | 1041.8 |
| 20260831190314 | 79 | 67 | 0.0 | 0.0 | 0.00 | 0.59 | 0.03 | 73 | 1041.7 |
| 20260831184314 | 80 | 67 | 0.0 | 0.0 | 0.00 | 0.59 | 0.03 | 71 | 1042.0 |
| 20260831183314 | 80 | 67 | 0.0 | 0.0 | 0.00 | 0.59 | 0.03 | 69 | 1042.1 |
| 20260831182313 | 80 | 67 | 0.0 | 0.0 | 0.00 | 0.59 | 0.03 | 69 | 1041.9 |
| 20260831182213 | 80 | 67 | 0.0 | 0.0 | 0.00 | 0.59 | 0.03 | 69 | 1041.9 |
| 20260831181214 | 80 | 67 | 0.0 | 0.0 | 0.00 | 0.59 | 0.03 | 72 | 1042.1 |
| 20260831180215 | 80 | 67 | 0.0 | 0.0 | 0.00 | 0.59 | 0.03 | 70 | 1042.0 |